Time,TemperatureF,DewpointF,PressureIn,WindDirection,WindDirectionDegrees,WindSpeedMPH,WindSpeedGustMPH,Humidity,HourlyPrecipIn,Conditions,Clouds,dailyrainin,SoftwareType,DateUTC
2013-03-15 00:26:00,6.1,-13.0,30.21,NE,47,7.0,12.0,41,0.00,,,0.00,weatherlink.com 1.10,2013-03-15 08:26:00,
2013-03-15 00:41:00,6.3,-13.0,30.21,NE,53,8.0,12.0,41,0.00,,,0.00,weatherlink.com 1.10,2013-03-15 08:41:00,
2013-03-15 00:56:00,6.2,-13.0,30.20,East,84,6.0,12.0,41,0.00,,,0.00,weatherlink.com 1.10,2013-03-15 08:56:00,
2013-03-15 01:11:00,5.5,-13.0,30.20,NE,39,3.0,10.0,42,0.00,,,0.00,weatherlink.com 1.10,2013-03-15 09:11:00,
2013-03-15 01:26:00,5.6,-13.0,30.20,North,4,8.0,11.0,41,0.00,,,0.00,weatherlink.com 1.10,2013-03-15 09:26:00,
2013-03-15 01:42:00,5.7,-13.0,30.20,ENE,60,6.0,11.0,41,0.00,,,0.00,weatherlink.com 1.10,2013-03-15 09:42:00,
2013-03-15 01:56:00,6.0,-14.0,30.19,NE,56,4.0,10.0,40,0.00,,,0.00,weatherlink.com 1.10,2013-03-15 09:56:00,
2013-03-15 02:12:00,5.8,-14.0,30.19,ENE,63,4.0,9.0,40,0.00,,,0.00,weatherlink.com 1.10,2013-03-15 10:12:00,
2013-03-15 02:27:00,5.7,-14.0,30.19,NE,46,3.0,8.0,40,0.00,,,0.00,weatherlink.com 1.10,2013-03-15 10:27:00,
2013-03-15 02:42:00,5.8,-14.0,30.18,NE,39,3.0,11.0,40,0.00,,,0.00,weatherlink.com 1.10,2013-03-15 10:42:00,
2013-03-15 02:57:00,5.7,-14.0,30.18,NE,49,4.0,10.0,40,0.00,,,0.00,weatherlink.com 1.10,2013-03-15 10:57:00,
2013-03-15 03:27:00,5.9,-14.0,30.17,ENE,57,4.0,10.0,39,0.00,,,0.00,weatherlink.com 1.10,2013-03-15 11:27:00,
2013-03-15 03:42:00,5.8,-14.0,30.17,ENE,75,4.0,9.0,39,0.00,,,0.00,weatherlink.com 1.10,2013-03-15 11:42:00,
2013-03-15 03:57:00,5.6,-14.0,30.17,ENE,76,8.0,10.0,40,0.00,,,0.00,weatherlink.com 1.10,2013-03-15 11:57:00,
2013-03-15 04:12:00,5.6,-14.0,30.16,NE,35,3.0,10.0,39,0.00,,,0.00,weatherlink.com 1.10,2013-03-15 12:12:00,
2013-03-15 04:27:00,5.4,-15.0,30.16,NE,41,4.0,8.0,39,0.00,,,0.00,weatherlink.com 1.10,2013-03-15 12:27:00,
2013-03-15 04:42:00,5.4,-15.0,30.15,NE,45,4.0,6.0,39,0.00,,,0.00,weatherlink.com 1.10,2013-03-15 12:42:00,
2013-03-15 04:57:00,5.4,-15.0,30.15,NE,46,3.0,7.0,39,0.00,,,0.00,weatherlink.com 1.10,2013-03-15 12:57:00,
2013-03-15 05:12:00,5.7,-15.0,30.14,NE,50,8.0,10.0,38,0.00,,,0.00,weatherlink.com 1.10,2013-03-15 13:12:00,
2013-03-15 05:27:00,5.8,-15.0,30.14,NE,55,4.0,9.0,38,0.00,,,0.00,weatherlink.com 1.10,2013-03-15 13:27:00,
2013-03-15 05:43:00,5.9,-15.0,30.14,ENE,58,6.0,9.0,38,0.00,,,0.00,weatherlink.com 1.10,2013-03-15 13:43:00,
2013-03-15 05:58:00,5.7,-15.0,30.14,ENE,71,3.0,8.0,38,0.00,,,0.00,weatherlink.com 1.10,2013-03-15 13:58:00,
2013-03-15 06:13:00,5.8,-15.0,30.13,NE,49,7.0,11.0,38,0.00,,,0.00,weatherlink.com 1.10,2013-03-15 14:13:00,
2013-03-15 06:28:00,6.1,-15.0,30.13,NNE,29,7.0,8.0,37,0.00,,,0.00,weatherlink.com 1.10,2013-03-15 14:28:00,
2013-03-15 06:44:00,6.2,-15.0,30.13,NE,53,8.0,10.0,37,0.00,,,0.00,weatherlink.com 1.10,2013-03-15 14:44:00,
2013-03-15 06:58:00,6.4,-15.0,30.12,NE,39,4.0,10.0,37,0.00,,,0.00,weatherlink.com 1.10,2013-03-15 14:58:00,
2013-03-15 07:13:00,6.0,-15.0,30.12,ENE,62,4.0,10.0,37,0.00,,,0.00,weatherlink.com 1.10,2013-03-15 15:13:00,
2013-03-15 07:28:00,5.9,-15.0,30.11,ENE,64,7.0,9.0,37,0.00,,,0.00,weatherlink.com 1.10,2013-03-15 15:28:00,
2013-03-15 07:43:00,6.1,-15.0,30.11,East,79,6.0,8.0,37,0.00,,,0.00,weatherlink.com 1.10,2013-03-15 15:43:00,
2013-03-15 07:58:00,6.5,-15.0,30.11,NE,34,6.0,11.0,36,0.00,,,0.00,weatherlink.com 1.10,2013-03-15 15:58:00,
2013-03-15 08:13:00,6.5,-15.0,30.10,ENE,60,6.0,11.0,36,0.00,,,0.00,weatherlink.com 1.10,2013-03-15 16:13:00,
2013-03-15 08:28:00,6.2,-15.0,30.09,ENE,58,8.0,10.0,37,0.00,,,0.00,weatherlink.com 1.10,2013-03-15 16:28:00,
2013-03-15 08:44:00,6.5,-15.0,30.09,NE,55,5.0,9.0,36,0.00,,,0.00,weatherlink.com 1.10,2013-03-15 16:44:00,
2013-03-15 08:59:00,7.6,-15.0,30.09,ENE,75,2.0,6.0,35,0.00,,,0.00,weatherlink.com 1.10,2013-03-15 16:59:00,
2013-03-15 09:14:00,8.1,-15.0,30.10,NE,39,3.0,5.0,34,0.00,,,0.00,weatherlink.com 1.10,2013-03-15 17:14:00,
2013-03-15 09:29:00,8.4,-15.0,30.09,NE,49,7.0,9.0,34,0.00,,,0.00,weatherlink.com 1.10,2013-03-15 17:29:00,
2013-03-15 09:44:00,8.9,-15.0,30.09,East,87,6.0,9.0,33,0.00,,,0.00,weatherlink.com 1.10,2013-03-15 17:44:00,
2013-03-15 09:59:00,9.4,-14.0,30.08,ENE,60,4.0,9.0,33,0.00,,,0.00,weatherlink.com 1.10,2013-03-15 17:59:00,
2013-03-15 10:29:00,10.6,-14.0,30.07,NE,47,5.0,9.0,32,0.00,,,0.00,weatherlink.com 1.10,2013-03-15 18:29:00,
2013-03-15 10:44:00,11.6,-14.0,30.07,ENE,71,6.0,10.0,31,0.00,,,0.00,weatherlink.com 1.10,2013-03-15 18:44:00,
2013-03-15 10:59:00,12.4,-13.0,30.07,NNE,31,5.0,10.0,31,0.00,,,0.00,weatherlink.com 1.10,2013-03-15 18:59:00,
2013-03-15 11:14:00,12.9,-13.0,30.07,ENE,68,8.0,10.0,30,0.00,,,0.00,weatherlink.com 1.10,2013-03-15 19:14:00,
2013-03-15 11:29:00,13.3,-13.0,30.06,ENE,65,6.0,10.0,30,0.00,,,0.00,weatherlink.com 1.10,2013-03-15 19:29:00,
2013-03-15 11:45:00,14.1,-13.0,30.05,ENE,70,3.0,9.0,29,0.00,,,0.00,weatherlink.com 1.10,2013-03-15 19:45:00,
2013-03-15 12:00:00,14.8,-12.0,30.05,ESE,113,4.0,12.0,29,0.00,,,0.00,weatherlink.com 1.10,2013-03-15 20:00:00,
2013-03-15 12:30:00,16.3,-12.0,30.05,ESE,110,7.0,10.0,28,0.00,,,0.00,weatherlink.com 1.10,2013-03-15 20:30:00,
2013-03-15 12:45:00,17.0,-12.0,30.04,ENE,65,7.0,11.0,27,0.00,,,0.00,weatherlink.com 1.10,2013-03-15 20:45:00,
2013-03-15 13:00:00,17.1,-12.0,30.04,ENE,70,7.0,10.0,26,0.00,,,0.00,weatherlink.com 1.10,2013-03-15 21:00:00,
2013-03-15 13:15:00,17.7,-11.0,30.02,ENE,78,4.0,11.0,27,0.00,,,0.00,weatherlink.com 1.10,2013-03-15 21:15:00,
2013-03-15 13:30:00,18.2,-10.0,30.02,NE,52,4.0,10.0,28,0.00,,,0.00,weatherlink.com 1.10,2013-03-15 21:30:00,
2013-03-15 13:45:00,18.9,-12.0,30.02,ENE,58,8.0,17.0,24,0.00,,,0.00,weatherlink.com 1.10,2013-03-15 21:45:00,
2013-03-15 14:00:00,19.0,-12.0,30.02,ENE,68,6.0,15.0,24,0.00,,,0.00,weatherlink.com 1.10,2013-03-15 22:00:00,
2013-03-15 14:15:00,19.6,-11.0,30.01,East,101,6.0,15.0,25,0.00,,,0.00,weatherlink.com 1.10,2013-03-15 22:15:00,
2013-03-15 14:30:00,19.7,-12.0,30.00,East,94,7.0,16.0,24,0.00,,,0.00,weatherlink.com 1.10,2013-03-15 22:30:00,
2013-03-15 14:45:00,20.1,-11.0,30.00,East,80,6.0,12.0,25,0.00,,,0.00,weatherlink.com 1.10,2013-03-15 22:45:00,
2013-03-15 15:01:00,20.4,-11.0,30.00,East,88,13.0,13.0,24,0.00,,,0.00,weatherlink.com 1.10,2013-03-15 23:01:00,
2013-03-15 15:16:00,20.4,-11.0,29.99,NE,50,5.0,14.0,24,0.00,,,0.00,weatherlink.com 1.10,2013-03-15 23:16:00,
2013-03-15 15:31:00,20.9,-10.0,29.98,East,79,8.0,11.0,25,0.00,,,0.00,weatherlink.com 1.10,2013-03-15 23:31:00,
2013-03-15 16:01:00,21.0,-11.0,29.98,ENE,72,8.0,12.0,24,0.00,,,0.00,weatherlink.com 1.10,2013-03-16 00:01:00,
2013-03-15 16:16:00,20.8,-10.0,29.98,NE,51,11.0,12.0,25,0.00,,,0.00,weatherlink.com 1.10,2013-03-16 00:16:00,
2013-03-15 16:31:00,20.5,-9.0,29.98,ENE,68,11.0,15.0,26,0.00,,,0.00,weatherlink.com 1.10,2013-03-16 00:31:00,
2013-03-15 17:01:00,19.2,-8.0,29.98,ENE,61,4.0,10.0,29,0.00,,,0.00,weatherlink.com 1.10,2013-03-16 01:01:00,
2013-03-15 17:16:00,18.5,-9.0,29.98,ENE,70,7.0,11.0,29,0.00,,,0.00,weatherlink.com 1.10,2013-03-16 01:16:00,
2013-03-15 17:31:00,17.8,-8.0,29.97,North,352,1.0,10.0,31,0.00,,,0.00,weatherlink.com 1.10,2013-03-16 01:31:00,
2013-03-15 17:46:00,17.5,-8.0,29.97,NE,56,8.0,11.0,31,0.00,,,0.00,weatherlink.com 1.10,2013-03-16 01:46:00,
2013-03-15 18:17:00,16.8,-8.0,29.97,NE,56,8.0,13.0,32,0.00,,,0.00,weatherlink.com 1.10,2013-03-16 02:17:00,
2013-03-15 18:47:00,15.3,-9.0,29.97,NE,48,9.0,15.0,33,0.00,,,0.00,weatherlink.com 1.10,2013-03-16 02:47:00,
2013-03-15 19:02:00,14.8,-9.0,29.98,ENE,61,10.0,11.0,34,0.00,,,0.00,weatherlink.com 1.10,2013-03-16 03:02:00,
2013-03-15 19:17:00,14.5,-9.0,29.98,NE,49,6.0,13.0,34,0.00,,,0.00,weatherlink.com 1.10,2013-03-16 03:17:00,
2013-03-15 19:32:00,13.6,-9.0,29.98,NE,53,9.0,11.0,35,0.00,,,0.00,weatherlink.com 1.10,2013-03-16 03:32:00,
2013-03-15 19:47:00,12.9,-10.0,29.98,NNE,23,7.0,13.0,36,0.00,,,0.00,weatherlink.com 1.10,2013-03-16 03:47:00,
2013-03-15 20:02:00,12.1,-10.0,29.98,NNE,33,6.0,12.0,37,0.00,,,0.00,weatherlink.com 1.10,2013-03-16 04:02:00,
2013-03-15 20:17:00,11.5,-10.0,29.99,NE,49,2.0,9.0,38,0.00,,,0.00,weatherlink.com 1.10,2013-03-16 04:17:00,
2013-03-15 20:47:00,10.3,-10.0,29.99,ENE,61,7.0,9.0,39,0.00,,,0.00,weatherlink.com 1.10,2013-03-16 04:47:00,
2013-03-15 21:02:00,9.8,-11.0,29.99,ENE,61,4.0,7.0,39,0.00,,,0.00,weatherlink.com 1.10,2013-03-16 05:02:00,
2013-03-15 21:17:00,9.3,-11.0,29.99,ENE,63,4.0,5.0,40,0.00,,,0.00,weatherlink.com 1.10,2013-03-16 05:17:00,
2013-03-15 21:32:00,9.1,-11.0,29.99,ENE,70,4.0,6.0,40,0.00,,,0.00,weatherlink.com 1.10,2013-03-16 05:32:00,
2013-03-15 21:48:00,8.7,-11.0,29.99,NE,49,4.0,6.0,40,0.00,,,0.00,weatherlink.com 1.10,2013-03-16 05:48:00,
2013-03-15 22:03:00,8.7,-11.0,29.99,ENE,63,7.0,7.0,40,0.00,,,0.00,weatherlink.com 1.10,2013-03-16 06:03:00,
2013-03-15 22:18:00,9.0,-11.0,30.00,ENE,72,8.0,11.0,40,0.00,,,0.00,weatherlink.com 1.10,2013-03-16 06:18:00,
2013-03-15 22:33:00,8.9,-11.0,30.00,ENE,58,7.0,10.0,40,0.00,,,0.00,weatherlink.com 1.10,2013-03-16 06:33:00,
2013-03-15 22:48:00,8.7,-11.0,30.00,East,79,6.0,9.0,40,0.00,,,0.00,weatherlink.com 1.10,2013-03-16 06:48:00,
2013-03-15 23:03:00,8.5,-11.0,30.00,ENE,63,10.0,10.0,40,0.00,,,0.00,weatherlink.com 1.10,2013-03-16 07:03:00,
2013-03-15 23:18:00,8.5,-11.0,30.01,NE,53,8.0,9.0,40,0.00,,,0.00,weatherlink.com 1.10,2013-03-16 07:18:00,
2013-03-15 23:33:00,8.5,-11.0,30.01,ENE,58,8.0,11.0,40,0.00,,,0.00,weatherlink.com 1.10,2013-03-16 07:33:00,
2013-03-15 23:48:00,8.5,-11.0,30.02,ENE,63,8.0,10.0,40,0.00,,,0.00,weatherlink.com 1.10,2013-03-16 07:48:00,